• In Latvia
  • List of Countries
  • For 7 days
  • Water Temperature
  • Satellite Maps
  • Weather Map
  • Weather Widgets
  • user-avatar
    Login

    Hourly Weather Kalgoorlie

    Today, 28 June, Wednesday

    Time Temperature Precipitation Wind Pressure Humidity
    00:00 +8°C° 0 mm 4 mps 739 mmHg 84%
    01:00 +9°C° 0 mm 3 mps 739 mmHg 88%
    02:00 +8°C° 0 mm 3 mps 739 mmHg 93%
    03:00 +8°C° 0 mm 3 mps 739 mmHg 94%
    04:00 +7°C° 0 mm 3 mps 739 mmHg 94%
    05:00 +7°C° 0 mm 3 mps 740 mmHg 95%
    06:00 +7°C° 0 mm 3 mps 740 mmHg 94%
    07:00 +6°C° 0 mm 4 mps 740 mmHg 93%
    08:00 +7°C° 0 mm 4 mps 741 mmHg 92%
    09:00 +8°C° 0 mm 4 mps 741 mmHg 82%
    10:00 +10°C° 0 mm 5 mps 741 mmHg 71%
    11:00 +13°C° 0 mm 5 mps 741 mmHg 61%
    12:00 +13°C° 0 mm 5 mps 741 mmHg 56%
    13:00 +14°C° 0 mm 5 mps 741 mmHg 50%
    14:00 +15°C° 0 mm 5 mps 740 mmHg 44%
    15:00 +14°C° 0 mm 4 mps 740 mmHg 47%
    16:00 +13°C° 0 mm 4 mps 740 mmHg 50%
    17:00 +12°C° 0 mm 3 mps 740 mmHg 53%
    18:00 +11°C° 0 mm 3 mps 741 mmHg 56%
    19:00 +10°C° 0 mm 3 mps 741 mmHg 60%
    20:00 +9°C° 0 mm 3 mps 742 mmHg 63%
    21:00 +8°C° 0 mm 3 mps 742 mmHg 67%
    22:00 +7°C° 0 mm 4 mps 742 mmHg 70%
    23:00 +6°C° 0 mm 4 mps 742 mmHg 74%

    Tomorrow, 29 June, Thursday

    Time Temperature Precipitation Wind Pressure Humidity
    00:00 +6°C° 0 mm 4 mps 742 mmHg 78%
    01:00 +5°C° 0 mm 4 mps 742 mmHg 81%
    02:00 +5°C° 0 mm 4 mps 742 mmHg 85%
    03:00 +5°C° 0 mm 3 mps 741 mmHg 88%
    04:00 +4°C° 0 mm 3 mps 741 mmHg 90%
    05:00 +4°C° 0 mm 3 mps 741 mmHg 93%
    06:00 +4°C° 0 mm 4 mps 742 mmHg 92%
    07:00 +4°C° 0 mm 4 mps 742 mmHg 91%
    08:00 +5°C° 0 mm 4 mps 742 mmHg 90%
    09:00 +7°C° 0 mm 5 mps 742 mmHg 78%
    10:00 +8°C° 0 mm 5 mps 742 mmHg 66%
    11:00 +10°C° 0 mm 6 mps 742 mmHg 55%
    12:00 +11°C° 0 mm 6 mps 741 mmHg 49%
    13:00 +13°C° 0 mm 6 mps 740 mmHg 43%
    14:00 +14°C° 0 mm 6 mps 739 mmHg 37%
    15:00 +13°C° 0 mm 5 mps 739 mmHg 40%
    16:00 +12°C° 0 mm 4 mps 739 mmHg 43%
    17:00 +11°C° 0 mm 4 mps 738 mmHg 46%
    18:00 +10°C° 0 mm 4 mps 738 mmHg 49%
    19:00 +8°C° 0 mm 4 mps 739 mmHg 53%
    20:00 +7°C° 0 mm 4 mps 739 mmHg 56%
    21:00 +7°C° 0 mm 4 mps 738 mmHg 58%
    22:00 +6°C° 0 mm 4 mps 738 mmHg 60%
    23:00 +6°C° 0 mm 4 mps 738 mmHg 62%

    Day after tomorrow, 30 June, Friday

    Time Temperature Precipitation Wind Pressure Humidity
    00:00 +6°C° 0 mm 4 mps 738 mmHg 64%
    01:00 +5°C° 0 mm 4 mps 737 mmHg 65%
    02:00 +5°C° 0 mm 5 mps 737 mmHg 67%
    03:00 +3°C° 0 mm 5 mps 737 mmHg 70%
    04:00 +3°C° 0 mm 5 mps 736 mmHg 72%
    05:00 +3°C° 0 mm 5 mps 736 mmHg 75%
    06:00 +3°C° 0 mm 5 mps 736 mmHg 75%
    07:00 +3°C° 0 mm 5 mps 736 mmHg 74%
    08:00 +5°C° 0 mm 5 mps 736 mmHg 74%
    09:00 +7°C° 0 mm 6 mps 736 mmHg 62%
    10:00 +9°C° 0 mm 7 mps 735 mmHg 51%
    11:00 +12°C° 0 mm 8 mps 735 mmHg 39%
    12:00 +13°C° 0 mm 8 mps 734 mmHg 35%
    13:00 +14°C° 0 mm 7 mps 733 mmHg 32%
    14:00 +15°C° 0 mm 7 mps 732 mmHg 28%
    15:00 +14°C° 0 mm 6 mps 732 mmHg 31%
    16:00 +13°C° 0 mm 5 mps 731 mmHg 34%
    17:00 +11°C° 0 mm 3 mps 731 mmHg 37%
    18:00 +11°C° 0 mm 3 mps 731 mmHg 38%
    19:00 +10°C° 0 mm 3 mps 731 mmHg 40%
    20:00 +9°C° 0 mm 3 mps 732 mmHg 42%
    21:00 +9°C° 0 mm 3 mps 731 mmHg 43%
    22:00 +9°C° 0 mm 3 mps 731 mmHg 43%
    23:00 +7°C° 0 mm 4 mps 731 mmHg 44%

    1 July, Saturday

    Time Temperature Precipitation Wind Pressure Humidity
    00:00 +7°C° 0 mm 4 mps 731 mmHg 44%
    01:00 +7°C° 0 mm 4 mps 730 mmHg 45%
    02:00 +7°C° 0 mm 4 mps 730 mmHg 45%
    03:00 +7°C° 0 mm 4 mps 730 mmHg 46%
    04:00 +7°C° 0 mm 4 mps 730 mmHg 48%
    05:00 +6°C° 0 mm 4 mps 729 mmHg 49%
    06:00 +7°C° 0 mm 4 mps 730 mmHg 51%
    07:00 +7°C° 0 mm 4 mps 730 mmHg 53%
    08:00 +8°C° 0 mm 4 mps 730 mmHg 56%
    09:00 +10°C° 0 mm 4 mps 730 mmHg 60%
    10:00 +10°C° 0 mm 5 mps 730 mmHg 63%
    11:00 +12°C° 0 mm 5 mps 730 mmHg 67%
    12:00 +13°C° 0 mm 6 mps 729 mmHg 66%
    13:00 +14°C° 0 mm 6 mps 728 mmHg 64%
    14:00 +14°C° 0 mm 6 mps 727 mmHg 62%
    15:00 +14°C° 0 mm 6 mps 727 mmHg 64%
    16:00 +13°C° 0 mm 5 mps 727 mmHg 65%
    17:00 +13°C° 0 mm 5 mps 727 mmHg 67%
    18:00 +10°C° 0.4 mm 6 mps 728 mmHg 69%
    19:00 +9°C° 0.4 mm 8 mps 729 mmHg 70%
    20:00 +7°C° 0.4 mm 9 mps 729 mmHg 72%
    21:00 +7°C° 0.2 mm 9 mps 730 mmHg 73%
    22:00 +6°C° 0.2 mm 8 mps 730 mmHg 73%
    23:00 +6°C° 0.2 mm 8 mps 730 mmHg 74%

    2 July, Sunday

    Time Temperature Precipitation Wind Pressure Humidity
    00:00 +5°C° 0 mm 8 mps 731 mmHg 77%
    01:00 +4°C° 0 mm 7 mps 731 mmHg 80%
    02:00 +3°C° 0 mm 7 mps 731 mmHg 83%
    03:00 +3°C° 0 mm 7 mps 731 mmHg 84%
    04:00 +2°C° 0 mm 6 mps 731 mmHg 85%
    05:00 +2°C° 0 mm 6 mps 732 mmHg 86%
    06:00 +2°C° 0 mm 6 mps 732 mmHg 85%
    07:00 +2°C° 0 mm 6 mps 733 mmHg 83%
    08:00 +2°C° 0 mm 6 mps 733 mmHg 82%
    09:00 +4°C° 0 mm 7 mps 733 mmHg 74%
    10:00 +5°C° 0 mm 7 mps 734 mmHg 66%
    11:00 +8°C° 0 mm 7 mps 734 mmHg 58%
    12:00 +8°C° 0 mm 7 mps 734 mmHg 56%
    13:00 +9°C° 0 mm 7 mps 733 mmHg 54%
    14:00 +9°C° 0 mm 7 mps 733 mmHg 52%
    15:00 +9°C° 0 mm 6 mps 733 mmHg 53%
    16:00 +9°C° 0 mm 6 mps 734 mmHg 55%
    17:00 +8°C° 0 mm 5 mps 734 mmHg 56%
    18:00 +8°C° 0 mm 4 mps 735 mmHg 57%
    19:00 +7°C° 0 mm 4 mps 735 mmHg 59%
    20:00 +7°C° 0 mm 3 mps 735 mmHg 60%
    21:00 +7°C° 0 mm 3 mps 736 mmHg 63%
    22:00 +5°C° 0 mm 3 mps 736 mmHg 65%
    23:00 +5°C° 0 mm 3 mps 736 mmHg 68%

    3 July, Monday

    Time Temperature Precipitation Wind Pressure Humidity
    00:00 +4°C° 0 mm 3 mps 736 mmHg 72%
    01:00 +4°C° 0 mm 3 mps 736 mmHg 76%
    02:00 +3°C° 0 mm 3 mps 736 mmHg 80%
    03:00 +3°C° 0 mm 3 mps 736 mmHg 83%
    04:00 +3°C° 0 mm 3 mps 736 mmHg 86%
    05:00 +2°C° 0 mm 3 mps 736 mmHg 89%
    06:00 +3°C° 0 mm 3 mps 736 mmHg 87%
    07:00 +3°C° 0 mm 3 mps 737 mmHg 86%
    08:00 +5°C° 0 mm 2 mps 737 mmHg 84%
    09:00 +6°C° 0 mm 2 mps 737 mmHg 75%
    10:00 +8°C° 0 mm 2 mps 737 mmHg 67%
    11:00 +10°C° 0 mm 2 mps 738 mmHg 58%
    12:00 +10°C° 0 mm 2 mps 737 mmHg 55%
    13:00 +12°C° 0 mm 2 mps 737 mmHg 51%
    14:00 +12°C° 0 mm 2 mps 736 mmHg 48%
    15:00 +12°C° 0 mm 2 mps 736 mmHg 49%
    16:00 +12°C° 0 mm 2 mps 736 mmHg 50%
    17:00 +10°C° 0 mm 2 mps 736 mmHg 52%
    18:00 +10°C° 0 mm 2 mps 737 mmHg 54%
    19:00 +9°C° 0 mm 2 mps 737 mmHg 57%
    20:00 +9°C° 0 mm 2 mps 738 mmHg 60%
    21:00 +8°C° 0 mm 2 mps 738 mmHg 65%
    22:00 +7°C° 0 mm 2 mps 738 mmHg 70%
    23:00 +6°C° 0 mm 2 mps 738 mmHg 75%
    Show more